Simultaneous Nadir Overpasses (SNOs) Predictions

Prediction of SNOs between METOP-B and NOAA-19 Satellite Orbit:

Table of predicted SNOs for the next 14.0 days since TLE Epoch: 1/6/2017
Index Date (METOP-B) Time (METOP-B) Lat,Lon (METOP-B) SZA (METOP-B ) Date (NOAA-19) Time (NOAA-19) Lat,Lon (NOAA-19) SZA (NOAA-19 ) Distance(km) Time Diff (sec)
1 01/15/2017 05:52:00 76.82, 95.47 97.83 01/15/2017 05:50:47 76.85, 94.69 97.85 20.21 73
2 01/15/2017 06:42:44 -76.73, -97.55 82.28 01/15/2017 06:41:50 -76.73, -97.59 82.28 0.81 54
3 01/15/2017 07:33:24 76.71, 69.70 97.70 01/15/2017 07:32:46 76.73, 69.68 97.72 2.36 38
4 01/15/2017 08:24:06 -76.71,-122.98 82.31 01/15/2017 08:23:51 -76.70,-122.95 82.32 1.37 15
5 01/15/2017 09:14:46 76.69, 44.28 97.67 01/15/2017 09:14:47 76.70, 44.31 97.68 1.37 1
6 01/15/2017 10:05:28 -76.69,-148.40 82.35 01/15/2017 10:05:52 -76.66,-148.32 82.37 3.22 24
7 01/15/2017 10:56:08 76.66, 18.85 97.63 01/15/2017 10:56:48 76.66, 18.95 97.63 2.36 40
8 01/15/2017 11:46:50 -76.66,-173.83 82.38 01/15/2017 11:47:54 -76.67,-173.87 82.37 1.47 64
9 01/15/2017 12:37:35 76.42, -7.41 97.37 01/15/2017 12:38:45 76.46, -5.73 97.41 44.05 70




NCC Satellite Simultaneous Nadir Overpasses (SNOs) Prediction Service
